Погода в Палласовке

Россия / Волгоградская область     50°03′00″N   46°52′49″E
темп.,
°C
ветер,
м/с
пор.,
м/с
влажн.,
%
обл.,
%
осадки,
мм/ч
давл.,
гПа
погр.,
м
25 февраля, чт
чт2500:00−22сз338786 0.0 103954
03:00−21зсз228688 0.0 103931
06:00−21зюз238392 0.0 103742
09:00−18юз457995 0.0 1036236
12:00−14ююз6877100 0.0 1034418
15:00−12ююз81293100 0.4 1031627
18:00−11ююз101693100 1.6 1025719
21:00−9юз101694100 4.3 1022733
26 февраля, пт
пт2600:00−8юз81594100 1.6 1018553
03:00−6юз51096100 2.4 1016336
06:00−4зюз4797100 0.2 1015136
09:00+1з47100100 0.2 1015228
12:00+1з48100100 0.0 1015234
15:00+1зюз47100100 0.0 1014188
18:00+1зюз51099100 1.0 1012275
21:00+2зюз61399100 1.4 1011303
27 февраля, сб
сб2700:00+2зюз71399100 0.1 1008360
03:00+2зюз81597100 0.2 1008430
06:00+2з71396100 0.0 1007437
09:00+1зюз51197100 0.1 1007303
12:00+1зюз611100100 0.0 1007401
15:00+1зюз612100100 0.0 1006436
18:00+1зюз51194100 0.0 1006344
21:000зюз51193100 0.1 1005299
28 февраля, вс
вс2800:00−1зюз5109692 0.0 1005312
03:00−2зюз6149274 0.0 1005370
06:00−5сз8129097 0.2 1006435
09:00−8сз7108465 0.2 1009683
12:00−8сз798399 0.0 1010682
15:00−8сз6984100 0.1 1012705
18:00−10сз5989100 0.0 1013576
21:00−10сз599197 0.1 1016448
1 марта, пн
пн100:00−11сз589155 0.0 1017324
03:00−12сз479237 0.0 1018271
06:00−13сз47922 0.0 1020293
09:00−13ссз46882 0.0 1022348
12:00−12сз468660 0.0 1023419
15:00−11сз468672 0.0 1024459
18:00−12сз359162 0.0 1025158
21:00−13сз339331 0.0 102778